Погода в Хампе

Россия / Республика Саха (Якутия)     63°44′30″N   122°56′40″E
темп.,
°C
ветер,
м/с
пор.,
м/с
влажн.,
%
обл.,
%
осадки,
мм/ч
давл.,
гПа
погр.,
м
27 февраля, сб
сб2700:00−32всв3697100 0.0 1030168
03:00−31в3796100 0.0 1029205
06:00−33в379877 0.0 1028162
09:00−34в379874 0.0 1028158
12:00−29в3695100 0.0 1027318
15:00−27всв3695100 0.0 1024372
18:00−28всв2596100 0.0 1024193
21:00−28всв2698100 0.1 1023325
28 февраля, вс
вс2800:00−28ссв1299100 0.5 1023112
03:00−28сз2399100 0.8 102296
06:00−29зсз2499100 0.3 1023162
09:00−29зсз3697100 0.4 1023286
12:00−27зсз4795100 0.1 1025474
15:00−26з4793100 0.3 1025595
18:00−26з3895100 0.1 1027618
21:00−27з4995100 0.2 1028525
1 марта, пн
пн100:00−28з3895100 0.1 1028469
03:00−28з3893100 0.1 1028401
06:00−30з3894100 0.0 1028334
09:00−30з4892100 0.0 1029340
12:00−30з3792100 0.0 1029369
15:00−29з3692100 0.0 1028401
18:00−30з2694100 0.0 1028236
21:00−32з2396100 0.0 102859
2 марта, вт
вт200:00−34з239791 0.0 102840
03:00−34з229695 0.0 102741
06:00−35з2295100 0.0 102728
09:00−36з229591 0.0 102740
12:00−32зсз2391100 0.0 1027289
15:00−29зсз1288100 0.0 1027364
18:00−32зсз1295100 0.0 102719
21:00−34зсз1198100 0.0 102719
3 марта, ср
ср300:00−34зсз1199100 0.0 102719
03:00−35сз11100100 0.1 102719
06:00−36зсз119999 0.0 102719
09:00−34зсз129899 0.1 102790
12:00−30зсз2394100 0.1 1026383
15:00−29зсз2493100 0.2 1025548
18:00−29сз2596100 0.1 1024472
21:00−30сз3697100 0.3 1023376